Weather History for Aurora, NE

Change the Weather History Date:

Thursday, March 6, 2014

  Actual Average Record
Temperature  
Mean Temperature 33 °F -  
Max Temperature 47 °F 46 °F 84 °F (1972)
Min Temperature 19 °F 23 °F -4 °F (1989)
Degree Days  
Heating Degree Days 32    
Moisture  
Dew Point 26 °F    
Average Humidity 79    
Maximum Humidity 96    
Minimum Humidity 49    
Precipitation  
Precipitation 0.00 in - - ()
Sea Level Pressure  
Sea Level Pressure 29.97 in    
Wind  
Wind Speed 12 mph (South)    
Max Wind Speed 21 mph    
Max Gust Speed 30 mph    
Visibility 7 miles    
Events      
Averages and records for this station are not official NWS values.
T = Trace of Precipitation, MM = Missing Value Source: NWS Daily Summary

Daily Weather History Graph

Daily Weather History Graph

Search for Another Location

Airport:

Trip Planner

Search our weather history database for the weather conditions in past years. The results will help you decide how hot, cold, wet, or windy it might be!

Date:

Astronomy

Mar. 06, 2014 Rise Set
Actual Time 6:58 AM CST 6:28 PM CST
Civil Twilight 6:30 AM CST 6:56 PM CST
Nautical Twilight 5:59 AM CST 7:28 PM CST
Astronomical Twilight 5:27 AM CST 8:00 PM CST
Moon 10:04 AM CST (3/6) No Moon Set
Length of Visible Light 12h 25m
Length of Day
11h 30m
Waxing Crescent, 32% of the Moon is Illuminated
Mar 6
Waxing Crescent
Mar 8
First Quarter
Mar 16
Full
Mar 23
Last Quarter
Mar 30
New

Hourly Weather History & Observations

Time (CST) Temp. Windchill Dew Point Humidity Pressure Visibility Wind Dir Wind Speed Gust Speed Precip Events Conditions
12:15 AM 23.9 °F 15.0 °F 17.2 °F 76% 30.21 in 10.0 mi South 8.1 mph - N/A   Clear
12:35 AM 23.9 °F 14.2 °F 18.1 °F 79% 30.20 in 10.0 mi South 9.2 mph - N/A   Clear
12:55 AM 23.7 °F 15.6 °F 18.3 °F 80% 30.20 in 10.0 mi South 6.9 mph - N/A   Clear
1:20 AM 23.2 °F 14.1 °F 18.1 °F 81% 30.20 in 10.0 mi South 8.1 mph - N/A   Clear
1:35 AM 22.1 °F 13.7 °F 17.6 °F 83% 30.20 in 7.0 mi South 6.9 mph - N/A   Clear
1:55 AM 22.1 °F 13.7 °F 18.0 °F 84% 30.18 in 7.0 mi South 6.9 mph - N/A   Clear
2:15 AM 21.7 °F 13.2 °F 17.8 °F 85% 30.18 in 7.0 mi South 6.9 mph - N/A   Clear
2:35 AM 21.7 °F 11.5 °F 18.3 °F 87% 30.18 in 7.0 mi SSW 9.2 mph - N/A   Clear
2:55 AM 21.4 °F 11.1 °F 18.3 °F 88% 30.17 in 7.0 mi South 9.2 mph - N/A   Clear
3:15 AM 21.0 °F 12.4 °F 18.5 °F 90% 30.16 in 7.0 mi South 6.9 mph - N/A   Clear
3:35 AM 20.8 °F 11.2 °F 18.9 °F 92% 30.15 in 5.0 mi South 8.1 mph - N/A   Clear
3:55 AM 21.2 °F 10.1 °F 19.4 °F 93% 30.15 in 5.0 mi SSW 10.4 mph - N/A   Clear
4:15 AM 21.0 °F 9.3 °F 19.4 °F 93% 30.13 in 5.0 mi SSW 11.5 mph - N/A   Clear
4:35 AM 20.3 °F 9.8 °F 18.7 °F 93% 30.13 in 5.0 mi South 9.2 mph - N/A   Clear
4:55 AM 20.1 °F 10.3 °F 18.5 °F 93% 30.12 in 5.0 mi South 8.1 mph - N/A   Clear
5:15 AM 19.8 °F 8.3 °F 18.3 °F 94% 30.11 in 4.0 mi South 10.4 mph - N/A   Clear
5:35 AM 19.8 °F 9.9 °F 18.7 °F 96% 30.12 in 4.0 mi South 8.1 mph - N/A   Clear
5:55 AM 20.3 °F 9.8 °F 19.0 °F 95% 30.11 in 4.0 mi South 9.2 mph - N/A   Clear
6:15 AM 20.5 °F 9.2 °F 19.4 °F 96% 30.08 in 4.0 mi South 10.4 mph - N/A   Clear
6:35 AM 21.2 °F 11.7 °F 20.1 °F 96% 30.09 in 4.0 mi South 8.1 mph - N/A   Clear
6:55 AM 20.1 °F 9.5 °F 18.5 °F 93% 30.08 in 4.0 mi South 9.2 mph - N/A   Clear
7:15 AM 20.1 °F 8.8 °F 19.0 °F 96% 30.08 in 3.0 mi South 10.4 mph - N/A   Clear
7:35 AM 21.0 °F 9.9 °F 19.9 °F 96% 30.08 in 2.5 mi South 10.4 mph - N/A   Clear
7:55 AM 21.9 °F 11.7 °F 20.7 °F 95% 30.08 in 3.0 mi South 9.2 mph - N/A   Clear
8:15 AM 23.9 °F 11.7 °F 22.5 °F 94% 30.08 in 3.0 mi South 13.8 mph 18.4 mph N/A   Clear
8:35 AM 25.0 °F 14.2 °F 23.4 °F 94% 30.07 in 3.0 mi South 11.5 mph - N/A   Clear
8:55 AM 25.3 °F 14.1 °F 23.4 °F 92% 30.06 in 3.0 mi South 12.7 mph 17.3 mph N/A   Scattered Clouds
9:15 AM 26.8 °F 14.9 °F 25.3 °F 94% 30.05 in 3.0 mi South 15.0 mph - N/A   Overcast
9:35 AM 28.2 °F 16.3 °F 26.1 °F 92% 30.05 in 4.0 mi South 16.1 mph 21.9 mph N/A   Overcast
9:55 AM 29.3 °F 17.3 °F 25.9 °F 87% 30.04 in 4.0 mi South 17.3 mph 25.3 mph N/A   Mostly Cloudy
10:15 AM 31.3 °F 19.5 °F 26.2 °F 82% 30.02 in 5.0 mi South 18.4 mph 23.0 mph N/A   Haze
10:35 AM 33.8 °F 23.2 °F 26.6 °F 75% 30.02 in 7.0 mi South 17.3 mph 23.0 mph N/A   Clear
10:55 AM 35.6 °F 24.8 °F 26.8 °F 70% 30.00 in 10.0 mi South 19.6 mph 24.2 mph N/A   Clear
11:15 AM 37.8 °F 28.3 °F 27.1 °F 66% 29.99 in 10.0 mi South 17.3 mph 25.3 mph N/A   Clear
11:35 AM 39.4 °F 29.8 °F 27.3 °F 62% 29.98 in 10.0 mi South 19.6 mph 25.3 mph N/A   Clear
11:55 AM 41.5 °F 32.4 °F 27.9 °F 58% 29.97 in 10.0 mi South 20.7 mph 27.6 mph N/A   Clear
12:15 PM 42.8 °F 34.5 °F 28.2 °F 56% 29.97 in 10.0 mi South 18.4 mph 23.0 mph N/A   Clear
12:35 PM 43.7 °F 36.3 °F 28.8 °F 56% 29.96 in 10.0 mi South 16.1 mph 23.0 mph N/A   Clear
12:55 PM 45.9 °F 38.8 °F 29.3 °F 52% 29.94 in 10.0 mi South 17.3 mph 25.3 mph N/A   Clear
1:15 PM 47.5 °F - 29.3 °F 49% 29.93 in 10.0 mi South 19.6 mph 26.5 mph N/A   Clear
1:35 PM 46.8 °F - 29.3 °F 51% 29.92 in 10.0 mi South 16.1 mph 25.3 mph N/A   Clear
1:55 PM 45.7 °F 37.8 °F 29.1 °F 52% 29.91 in 10.0 mi South 20.7 mph 29.9 mph N/A   Clear
2:15 PM 44.1 °F 35.7 °F 28.9 °F 55% 29.89 in 10.0 mi South 20.7 mph 27.6 mph N/A   Clear
2:35 PM 42.4 °F 34.1 °F 28.9 °F 59% 29.88 in 10.0 mi South 18.4 mph 27.6 mph N/A   Clear
2:55 PM 42.8 °F 34.0 °F 29.3 °F 59% 29.88 in 10.0 mi South 20.7 mph 27.6 mph N/A   Clear
3:15 PM 43.0 °F 34.5 °F 29.7 °F 59% 29.86 in 10.0 mi South 19.6 mph 27.6 mph N/A   Clear
3:35 PM 41.9 °F 33.7 °F 30.0 °F 63% 29.86 in 10.0 mi South 17.3 mph 25.3 mph N/A   Clear
3:55 PM 41.4 °F 32.7 °F 30.2 °F 65% 29.85 in 10.0 mi South 18.4 mph 25.3 mph N/A   Clear
4:15 PM 41.0 °F 33.5 °F 30.7 °F 67% 29.85 in 10.0 mi South 13.8 mph 25.3 mph N/A   Clear
4:35 PM 41.9 °F 35.0 °F 31.1 °F 66% 29.85 in 10.0 mi South 12.7 mph 20.7 mph N/A   Clear
4:55 PM 43.0 °F 35.4 °F 31.6 °F 64% 29.83 in 10.0 mi South 16.1 mph 21.9 mph N/A   Clear
5:15 PM 43.0 °F 36.4 °F 32.0 °F 65% 29.82 in 10.0 mi South 12.7 mph - N/A   Clear
5:35 PM 42.8 °F 34.3 °F 32.0 °F 66% 29.82 in 10.0 mi South 19.6 mph 25.3 mph N/A   Clear
5:55 PM 42.1 °F 34.9 °F 32.0 °F 67% 29.82 in 7.0 mi South 13.8 mph 19.6 mph N/A   Clear
6:15 PM 41.2 °F 34.1 °F 32.0 °F 70% 29.81 in 7.0 mi South 12.7 mph 17.3 mph N/A   Clear
6:35 PM 41.9 °F 35.4 °F 32.2 °F 68% 29.81 in 10.0 mi South 11.5 mph 20.7 mph N/A   Clear
6:55 PM 40.8 °F 33.3 °F 32.0 °F 71% 29.81 in 10.0 mi South 13.8 mph 21.9 mph N/A   Clear
7:15 PM 39.6 °F 32.5 °F 32.0 °F 74% 29.80 in 10.0 mi South 11.5 mph 19.6 mph N/A   Clear
7:35 PM 38.8 °F 31.2 °F 32.0 °F 76% 29.80 in 10.0 mi South 12.7 mph 19.6 mph N/A   Clear
7:55 PM 38.3 °F 30.1 °F 32.0 °F 78% 29.80 in 10.0 mi South 13.8 mph - N/A   Clear
8:15 PM 37.6 °F 30.0 °F 31.8 °F 80% 29.79 in 10.0 mi South 11.5 mph - N/A   Clear
8:35 PM 36.9 °F 29.6 °F 31.5 °F 81% 29.80 in 10.0 mi South 10.4 mph - N/A   Clear
8:55 PM 36.1 °F 27.7 °F 31.5 °F 83% 29.79 in 7.0 mi South 12.7 mph 18.4 mph N/A   Clear
9:15 PM 36.0 °F 26.7 °F 31.6 °F 84% 29.79 in 7.0 mi South 15.0 mph 20.7 mph N/A   Clear
9:35 PM 36.0 °F 26.7 °F 31.8 °F 85% 29.79 in 7.0 mi South 15.0 mph - N/A   Clear
9:55 PM 35.8 °F 27.3 °F 32.0 °F 86% 29.78 in 7.0 mi South 12.7 mph 20.7 mph N/A   Clear
10:15 PM 35.6 °F 27.5 °F 32.0 °F 87% 29.77 in 7.0 mi South 11.5 mph 18.4 mph N/A   Clear
10:35 PM 35.8 °F 26.9 °F 32.4 °F 87% 29.77 in 7.0 mi South 13.8 mph - N/A   Clear
10:55 PM 35.8 °F 26.9 °F 32.5 °F 88% 29.76 in 7.0 mi South 13.8 mph - N/A   Clear
11:15 PM 36.5 °F 27.8 °F 33.1 °F 87% 29.74 in 7.0 mi South 13.8 mph 19.6 mph N/A   Clear
11:35 PM 36.9 °F 27.8 °F 33.8 °F 89% 29.74 in 7.0 mi South 15.0 mph 21.9 mph N/A   Clear
11:55 PM 37.4 °F 28.5 °F 34.0 °F 87% 29.73 in 7.0 mi South 15.0 mph 20.7 mph N/A   Clear